Location: Arianrod
(53.0667°N, 4.3500°W)
Time: 11:57:14
(UTC+00:00)

Daily predictions for brighter satellites

Satellite Brightness Start Highest point End
(mag) Time Altitude Azimuth Time Altitude Azimuth Time Altitude Azimuth
Cosmos 1464 Rocket 4.3 16:30:44 10° SSE 16:36:53 53° E 16:43:03 10° NNE
SL-16 R/B 3.8 16:33:36 10° N 16:39:17 39° WNW 16:44:58 10° SW
NOSS 3-4 (A) 4.4 16:33:58 10° WNW 16:39:35 35° N 16:45:47 10° ENE
NOSS 3-4 (C) 4.4 16:34:04 10° WNW 16:39:40 35° N 16:45:52 10° NE
Nadezhda 4 Rocket 4.1 16:33:39 10° N 16:39:54 58° ENE 16:46:08 10° SSE
SL-24 R/B - RUBIN 2 4.0 16:35:37 10° NW 16:40:11 44° NE 16:44:25 10° ESE
Cosmos 2322 Rocket 3.7 16:37:13 10° NNW 16:41:02 18° NNE 16:44:49 10° ENE
Cosmos 990 Rocket 4.0 16:36:44 10° NNW 16:41:57 68° ENE 16:47:06 10° SE
ATLAS 2AS CENTAUR R/B 3.5 16:34:40 10° W 16:42:10 48° NNW 16:49:21 10° NE
SeaSat 1 2.8 16:37:24 10° NNE 16:42:19 66° NW 16:47:12 10° SW
Cosmos 1697 Rocket 2.7 16:38:33 10° NNW 16:44:08 60° NE 16:49:41 10° SE
RESURS DK-1 4.5 16:41:28 10° W 16:44:24 18° NW 16:47:20 10° N
Cosmos 1862 4.1 16:43:30 10° NNW 16:47:26 56° W 16:51:22 10° S
Sich 1 4.0 16:44:10 10° N 16:47:44 25° ENE 16:51:18 10° ESE
FengYun 1-2 T 4.4 16:42:44 10° SE 16:48:08 53° ENE 16:53:32 10° N
Cosmos 1980 Rocket 2.6 16:42:55 10° NNW 16:48:18 40° NE 16:53:36 10° ESE
Cosmos 1271 Rocket 2.9 16:44:38 10° SSW 16:48:36 80° WNW 16:52:38 10° NNE
NOSS 2-1 (C) 3.1 16:45:47 10° WSW 16:49:00 64° NW 16:52:29 10° NE
Cosmos 1805 Rocket 4.3 16:45:56 10° N 16:49:50 31° ENE 16:53:42 10° SE
Cosmos 2369 4.0 16:44:43 10° NNW 16:50:18 49° NE 16:55:51 10° SE
NOAA 6 4.3 16:46:39 10° SE 16:51:31 45° ENE 16:56:25 10° N
Cosmos 2221 2.6 16:48:42 10° S 16:52:54 58° E 16:57:09 10° NNE
CZ-4C R/B 3.0 16:47:48 10° NW 16:54:19 56° NNE 17:02:10 10° ESE
Cosmos 1092 Rocket 4.3 16:49:35 10° N 16:55:44 47° ENE 17:01:50 10° SE
Cosmos 2084 4.0 16:52:14 10° NW 16:56:27 64° SW 17:00:51 10° SE
NOSS 3-1 (A) 4.2 16:49:18 10° NW 16:56:33 81° SW 17:05:08 10° SE
Envisat 4.4 16:52:40 10° S 16:57:29 43° W 17:02:22 10° NNW
Cosmos 1842 Rocket 3.7 16:53:25 10° S 16:57:47 57° E 17:02:13 10° NNE
USA 234 3.4 16:51:21 10° ESE 16:57:55 81° SSW 17:04:30 10° WNW
NOSS 2-1 (D) 3.3 16:55:09 10° WSW 16:58:19 54° NW 17:01:49 10° NE
SL-16 R/B 3.4 16:54:47 10° NNW 16:59:16 23° NNE 17:03:42 10° E
USA 306 2.9 16:55:06 10° W 16:59:23 83° N 17:03:35 10° E
ISS -3.2 16:57:08 10° W 17:00:30 59° SSW 17:03:50 10° ESE
Cosmos 2237 Rocket 4.2 16:58:21 10° NW 17:00:56 13° N 17:03:32 10° NNE
Meteor 1-25 Rocket 4.3 16:56:02 10° N 17:01:31 56° ENE 17:07:01 10° SSE
NOSS 2-2 (D) 4.1 16:57:41 10° NW 17:02:21 66° NE 17:08:49 10° ESE
NOSS 2-2 (E) 4.2 16:57:51 10° NW 17:02:41 76° NE 17:09:29 10° SE
Cosmos 2082 Rocket 3.6 17:03:22 10° SE 17:07:20 20° E 17:10:43 12° ENE
SMAP 3.1 17:02:52 10° SSE 17:07:25 57° ENE 17:12:00 10° N
Meteor PRIRODA 3.6 17:04:23 10° SSE 17:08:01 89° ENE 17:11:40 10° NNW
Cosmos 1939 Rocket 2.9 17:04:33 10° SSE 17:08:35 58° ENE 17:12:36 10° N
Cosmos 2333 Rocket 4.0 17:06:06 10° NNW 17:09:25 15° NNE 17:12:25 11° NE
Cosmos 44 Rocket 4.0 17:04:54 10° NW 17:09:33 36° NNE 17:14:03 10° E
CORIOLIS 4.2 17:05:11 10° SE 17:10:28 58° ENE 17:15:49 10° N
Meteor 2-2 Rocket 4.5 17:05:12 10° SSW 17:11:14 87° WNW 17:17:15 10° NNE
NOAA 12 4.2 17:08:21 10° SSE 17:13:41 89° WSW 17:19:02 10° NNW
Cosmos 2278 4.0 17:08:51 10° NNW 17:14:21 45° NE 17:19:47 10° ESE
Cosmos 1602 3.9 17:11:27 10° N 17:15:12 49° ENE 17:18:59 10° SSE
CZ-4B DEB 4.3 17:11:28 10° SE 17:16:52 58° ENE 17:22:15 10° N
USA 307 2.9 17:13:51 10° W 17:18:09 80° N 17:21:38 15° E
SL-16 R/B 4.3 17:16:31 10° NW 17:19:49 15° NNW 17:23:07 10° NNE
AQUARIUS 4.1 17:16:53 10° SSE 17:21:19 63° ENE 17:25:47 10° N
Cosmos 540 Rocket 4.1 17:17:34 10° SSE 17:22:08 35° ESE 17:26:07 13° NE
Cosmos 2034 Rocket 3.9 17:17:37 10° S 17:23:45 77° E 17:29:57 10° NNE
H-2A R/B 4.4 17:25:03 12° NNE 17:25:03 12° NNE 17:25:45 10° NNE
COSMO-SKYMED 1 4.0 17:23:24 16° ENE 17:24:38 18° E 17:27:36 10° SE
Radarsat 4.5 17:20:40 10° SSE 17:25:51 72° ENE 17:31:04 10° NNW
ARGOS 3.7 17:22:18 10° SE 17:27:08 35° ENE 17:31:59 10° N
COSMOS 2406 3.7 17:22:19 10° S 17:27:39 42° ESE 17:32:10 14° NE
Meteor 2-21 4.4 17:22:16 10° N 17:28:19 60° ENE 17:34:17 10° SSE
SL-08 R/B 3.4 17:23:36 10° NNE 17:28:21 78° WNW 17:33:00 10° SSW
Cosmos 1833 Rocket 2.9 17:23:27 10° S 17:28:53 52° ESE 17:33:41 13° NE
ATLAS 5 CENTAUR R/B 3.0 17:18:59 10° WNW 17:30:18 57° NNE 17:33:09 17° E
Cosmos 1782 3.5 17:27:13 10° SSE 17:30:50 34° E 17:33:48 14° NNE
Cosmos 1633 Rocket 3.7 17:29:05 10° N 17:33:02 32° ENE 17:36:57 10° SE
Cosmos 1818 3.8 17:28:18 10° NW 17:33:40 50° NE 17:38:50 11° ESE
ATLAS CENTAUR R/B 2.9 17:30:32 10° W 17:34:24 30° NNW 17:37:49 13° NNE
Cosmos 2219 Rocket 3.9 17:31:19 10° NNW 17:34:40 16° NNE 17:36:28 14° NE
Cosmos 468 Rocket 4.0 17:31:28 10° SSW 17:36:35 69° ESE 17:41:29 12° NNE
Cosmos 1898 Rocket 4.0 17:31:53 10° NNW 17:37:06 64° WSW 17:42:14 10° S
Cosmos 1606 4.0 17:33:52 10° SW 17:37:27 40° WNW 17:41:04 10° N
Cosmos 1340 Rocket 4.0 17:34:08 10° NNW 17:38:04 47° W 17:41:59 10° S
ERBS 2.6 17:36:23 10° W 17:39:32 51° NNW 17:41:01 26° NE
YAOGAN 1 3.8 17:39:35 21° ENE 17:39:35 21° ENE 17:42:47 10° N
CZ-4C R/B 4.5 17:35:54 10° N 17:39:36 40° WNW 17:43:07 10° SW
USA 308 2.9 17:36:24 10° W 17:40:40 77° N 17:43:14 23° E
CZ-2D R/B 3.2 17:38:15 10° SSE 17:42:02 62° ENE 17:45:50 10° N
GEOS 3 Rocket 3.9 17:37:58 14° ESE 17:42:16 48° NNE 17:47:14 10° NW
CZ-2C R/B 3.3 17:40:35 15° NE 17:44:11 30° E 17:48:42 10° SSE
Cosmos 1634 Rocket 4.1 17:38:20 10° S 17:44:30 57° E 17:50:41 10° NNE
COSMOS 2455 3.4 17:39:12 10° S 17:44:44 39° ESE 17:48:14 21° ENE
Cosmos 1500 3.0 17:41:02 10° N 17:44:46 67° ENE 17:48:29 10° SSE
Cosmos 2026 Rocket 3.9 17:39:58 10° N 17:46:11 82° E 17:52:16 10° SSE
PAYLOAD B 4.2 17:41:05 10° SSE 17:46:41 76° ENE 17:52:17 10° NNW
Cosmos 1743 Rocket 4.3 17:43:20 10° NNW 17:47:34 54° W 17:51:47 10° S
CZ-2C R/B 4.2 17:43:31 10° S 17:48:08 42° W 17:52:41 10° NNW
Lacrosse 5 rocket 1.2 17:44:31 10° WNW 17:48:21 70° NNE 17:50:36 25° E
CZ-4B R/B 3.2 17:43:55 10° SE 17:49:12 58° ENE 17:54:27 10° N
Cosmos 1151 Rocket 3.7 17:46:03 10° SSE 17:49:54 32° E 17:51:27 25° NE
Meteor 2-14 Rocket 4.4 17:45:19 10° N 17:51:28 84° ENE 17:57:34 10° SSE
Okean O Rocket 1.9 17:48:57 10° SE 17:53:12 46° ENE 17:57:29 10° N
CZ-4 R/B 3.1 17:59:39 18° NNE 17:59:39 18° NNE 18:01:05 10° N
NOSS 2-1 (E) 4.5 17:55:39 10° W 17:58:33 27° NNW 18:00:09 20° NNE
Cosmos 1666 Rocket 3.5 17:54:34 10° N 17:59:01 63° ENE 18:03:23 10° SSE
Meteor 1-11 Rocket 4.3 17:55:42 10° N 18:00:46 34° ENE 18:05:45 11° SE
Cosmos 2150 Rocket 4.3 17:57:05 10° NNW 18:01:59 42° NE 18:04:48 23° ESE
Cosmos 1470 Rocket 4.1 17:57:59 10° N 18:02:08 37° ENE 18:06:17 10° SE
Cosmos 1655 Rocket 4.3 17:57:57 10° N 18:04:04 44° ENE 18:10:08 10° SE
USA 267 3.3 18:01:04 24° ENE 18:05:17 76° SSE 18:11:50 10° WSW
H-2A R/B 2.0 18:00:09 10° SSE 18:05:19 89° W 18:10:23 10° NNW
Meteor 1-26 Rocket 4.3 18:00:08 10° S 18:06:07 74° E 18:12:10 10° NNE
Cosmos 2360 Rocket 3.1 18:01:23 10° NNW 18:06:16 28° NE 18:07:10 27° NE
USA 305 2.8 18:03:00 10° W 18:07:16 80° N 18:08:46 39° E
Cosmos 1328 Rocket 4.1 18:03:22 10° SSE 18:07:24 35° E 18:07:30 35° E
Cosmos 1763 Rocket 3.7 18:04:39 10° SW 18:09:43 68° WNW 18:13:56 15° NNE
PSLV R/B 4.3 18:07:13 10° S 18:10:51 57° WSW 18:14:34 10° NNW
Cosmos 1933 3.7 18:07:01 10° SSW 18:11:02 65° WNW 18:15:02 10° N
SKYMED 2 3.8 18:12:00 37° ENE 18:13:06 46° E 18:17:16 10° S
Cosmos 1666 2.4 18:10:31 10° N 18:14:16 79° E 18:17:58 10° SSE
Meteor 2-21 Rocket 4.4 18:08:28 10° NNW 18:14:38 88° W 18:20:43 10° S
COSMOS 2428 4.2 18:11:28 10° NNW 18:15:27 19° NNE 18:15:41 19° NNE
Cosmos 841 Rocket 3.4 18:11:00 10° SSW 18:16:07 70° ESE 18:18:54 28° NE
Feng Yun 1-1 Rocket 4.4 18:12:56 10° SE 18:18:42 58° ENE 18:24:26 10° N
SeaSat 1 4.5 18:15:36 10° NNE 18:19:08 20° NNW 18:22:40 10° WNW
ATLAS CENTAUR R/B 2.4 18:11:06 10° SW 18:19:27 69° SSE 18:20:43 44° E
Cosmos 1125 Rocket 3.6 18:15:03 10° NNW 18:20:10 51° ENE 18:22:14 33° ESE
Sich 1 4.2 18:21:31 10° NNW 18:25:36 44° W 18:29:42 10° SSW
Cosmos 2322 Rocket 2.4 18:21:00 10° NNW 18:26:32 47° NE 18:27:49 41° E
NOSS 3-4 (A) 4.3 18:26:00 10° NW 18:32:03 40° NNE 18:33:59 33° NE
NOSS 3-4 (C) 4.3 18:26:06 10° NW 18:32:08 40° NNE 18:34:03 33° NE
Cosmos 1980 Rocket 3.1 18:26:59 10° NW 18:32:27 50° WSW 18:37:51 10° S
ATLAS 2AS CENTAUR R/B 3.7 18:27:45 10° WNW 18:34:46 37° N 18:37:27 29° NE
SL-08 RB Rocket 3.6 18:31:48 10° SSE 18:36:26 78° ENE 18:41:03 10° NNW
ISS -1.6 18:34:10 10° W 18:36:54 23° SSW 18:37:59 19° S
Cosmos 1812 2.7 18:33:21 10° SSW 18:37:12 82° W 18:37:47 62° N
USA 306 2.7 18:35:06 10° WNW 18:39:22 88° NNE 18:39:35 81° E
deb Chang Zheng 4 4.2 18:38:15 10° S 18:42:30 57° WSW 18:46:47 10° NNW
CZ-4C R/B 3.4 18:36:17 10° NW 18:43:14 62° SW 18:51:25 10° SSE
SL-16 R/B 2.1 18:38:39 10° NNW 18:44:22 73° ENE 18:46:11 44° SE
Cosmos 2237 Rocket 4.1 18:44:11 10° NNW 18:47:00 16° NNE 18:47:00 16° NNE
Cosmos 2082 Rocket 2.1 18:45:01 10° SSW 18:50:42 88° WNW 18:52:35 45° NNE
Cosmos 44 Rocket 3.6 18:46:30 10° NW 18:51:25 65° SW 18:53:09 38° SSE
MOS 1-B Rocket 4.1 18:47:21 10° NNE 18:53:07 74° WNW 18:59:36 10° SSW
Cosmos 2333 Rocket 3.2 18:50:21 10° NNW 18:54:26 31° NNE 18:54:26 31° NNE
USA 307 3.1 18:53:52 10° WNW 18:57:40 69° W 18:57:40 69° W
COSMO-SKYMED 1 2.8 19:00:37 57° NNW 19:01:14 66° WNW 19:05:32 10° SSW
Cosmos 540 Rocket 4.4 18:58:45 10° SW 19:03:39 45° NW 19:05:57 28° N
SL-16 R/B 4.3 19:03:46 10° NNW 19:06:16 13° N 19:06:16 13° N
Cosmos 2298 Rocket 4.2 19:01:45 10° NNW 19:07:04 69° WSW 19:09:28 33° S
ARGOS 4.0 19:02:03 10° S 19:07:17 48° W 19:12:32 10° NNW
Cosmos 1570 Rocket 3.9 19:03:29 10° SSW 19:08:44 84° WNW 19:09:03 78° N
COSMOS 2406 4.0 19:06:24 10° WSW 19:11:57 47° NW 19:14:13 31° N
Cosmos 2279 Rocket 4.4 19:06:36 10° SSW 19:12:43 60° WNW 19:18:52 10° N
Cosmos 1833 Rocket 3.8 19:07:45 10° WSW 19:13:01 39° NW 19:15:24 27° N
Cosmos 2266 Rocket 4.1 19:06:55 10° NNW 19:13:17 75° W 19:19:40 10° S
Cosmos 1814 Rocket 4.1 19:08:12 10° SW 19:13:25 70° WNW 19:14:00 63° NNW
ATLAS CENTAUR R/B 3.6 19:11:14 10° NW 19:13:56 19° NNW 19:13:56 19° NNW
YAOGAN 1 3.7 19:16:44 38° NW 19:16:44 38° NW 19:19:36 10° NNW
Cosmos 1818 4.5 19:12:02 10° NW 19:17:17 47° WSW 19:19:32 30° S
GEOS 3 Rocket 4.1 19:19:06 45° S 19:20:17 55° SW 19:25:25 10° NW
Cosmos 2219 Rocket 3.5 19:15:04 10° NNW 19:18:11 27° N 19:18:11 27° N
USA 308 4.1 19:16:23 10° WNW 19:19:15 41° W 19:19:15 41° W
Meteor 2-15 Rocket 4.3 19:15:06 10° S 19:21:15 86° E 19:21:43 77° NNE
CZ-2C R/B 3.3 19:22:06 26° N 19:24:43 50° WNW 19:29:41 10° SW
Lacrosse 5 rocket 3.1 19:23:41 10° WNW 19:26:13 30° WSW 19:26:13 30° WSW
Okean O Rocket 3.7 19:25:59 10° SSW 19:29:45 26° W 19:33:32 10° NW
COSMOS 2455 3.3 19:24:36 10° WSW 19:30:32 57° NW 19:31:24 53° N
CZ-4 R/B 4.0 19:35:38 15° NNW 19:35:38 15° NNW 19:36:26 10° NNW
USA 267 3.3 19:48:25 68° NNW 19:48:25 68° NNW 19:54:48 10° W
Cosmos 2360 Rocket 3.1 19:45:13 10° NNW 19:48:56 42° NW 19:48:56 42° NW
COSMOS 2428 4.5 19:55:30 10° NNW 19:57:42 23° NNW 19:57:42 23° NNW
Cosmos 2322 Rocket 3.4 20:05:15 10° NW 20:09:40 38° W 20:09:40 38° W
ATLAS 2AS CENTAUR R/B 3.8 20:19:53 10° NW 20:24:52 40° NNW 20:24:52 40° NNW
SL-16 R/B 4.1 20:23:27 10° NW 20:27:58 25° WSW 20:28:07 25° WSW
Cosmos 2082 Rocket 4.2 20:30:53 10° W 20:34:28 24° NW 20:34:28 24° NW
Cosmos 2333 Rocket 4.3 20:34:35 10° NW 20:36:27 21° NW 20:36:27 21° NW
